Content
SEND FEEDBACK

Daily
Averages
Monthly
Summary
United States of America

JACKSON, TENNESSEE


Home > North America > United States > Tennessee
Elevation: 418 feet     Latitude: 35 36N     Longitude: 088 55W

WEATHER
 
SELECT A DAY
Number of Records: 207,895;   Date Range: 1/1/95 - 7/26/14
 
SHARE

PRINT THIS DATA

[ ← Previous Day ]
WEATHER ALMANAC - APRIL 7, 2014
[ Next Day → ]
[ °C ]   °F
Weather ElementAverageHighLow
Temperature49.1 °F57.2 °F (8:20 am)39 °F (11:53 pm)
Dewpoint46.4 °F54 °F (7:53 am)37 °F (11:53 pm)
Humidity90.1 %100 % (7:34 am)80 % (5:53 pm)
Barometer29.70 in29.88 in (10:53 pm)29.51 in (7:12 am)
Wind Speed8.2 mph17.3 mph (11:22 am)
Wind Gust28.8 mph (8:53 am)
Weather ElementAverage
Visibility5.5 mi
Wind DirectionSSW (207 °)

Weather ElementTotal
Precipitation0.16 in
Heating Degree Days16.9 (Base 65)
Averaged from 47 records on April 7, 2014
WEATHER CONDITIONS BREAKOUT
WIND DIRECTION BREAKOUT
WEATHER BY HOUR - APRIL 7, 2014
[ °C ]   °F
Local TimeTemperatureDewpointHumidityBarometerVisibilityWind DirectionWind SpeedGust SpeedPrecipitationEventsConditions
1:53 AM51.1 °F48.9 °F92 %29.67 in10.0 miNE (50°)6.9 mphOvercast
2:53 AM52.0 °F48.9 °F89 %29.67 in7.0 miNE (50°)4.6 mphOvercast
3:53 AM52.0 °F50.0 °F93 %29.59 in6.0 miEast (90°)8.1 mphOvercast
4:53 AM53.1 °F51.1 °F93 %29.60 in4.0 miCalmOvercast
5:53 AM53.1 °F51.1 °F93 %29.56 in4.0 miCalm0.01 inRainLight Rain
6:28 AM53.6 °F51.8 °F94 %29.54 in2.0 miVariable4.6 mph0.00 inOvercast
6:53 AM53.1 °F52.0 °F96 %29.52 in1.5 miESE (110°)4.6 mph0.00 inRainLight Rain
7:12 AM53.6 °F51.8 °F94 %29.51 in2.0 miSE (140°)3.5 mph0.01 inOvercast
7:34 AM53.6 °F53.6 °F100 %29.52 in1.5 miSSE (160°)5.8 mph0.02 inRainLight Rain
7:53 AM55.0 °F54.0 °F96 %29.53 in1.8 miSouth (190°)8.1 mph0.03 inRainLight Rain
8:00 AM55.4 °F53.6 °F94 %29.53 in2.5 miSouth (180°)6.9 mph0.01 inRainLight Rain
8:20 AM57.2 °F53.6 °F88 %29.54 in7.0 miSW (230°)16.1 mph21.9 mph0.01 inOvercast
8:53 AM55.0 °F52.0 °F89 %29.54 in10.0 miWSW (250°)16.1 mph28.8 mph0.01 inOvercast
9:53 AM54.0 °F51.1 °F90 %29.55 in10.0 miWSW (240°)12.7 mphOvercast
9:58 AM55.4 °F51.8 °F88 %29.55 in10.0 miWSW (240°)13.8 mphOvercast
10:20 AM53.6 °F50.0 °F88 %29.57 in10.0 miWSW (250°)13.8 mph21.9 mph0.01 inOvercast
10:53 AM54.0 °F50.0 °F86 %29.59 in10.0 miSW (230°)15.0 mph0.01 inOvercast
11:22 AM53.6 °F48.2 °F82 %29.60 in10.0 miWSW (250°)17.3 mph26.5 mphOvercast
11:32 AM51.8 °F48.2 °F88 %29.61 in10.0 miWest (260°)10.4 mphOvercast
11:53 AM51.1 °F48.0 °F89 %29.62 in10.0 miWest (260°)12.7 mph23.0 mphOvercast
12:53 PM50.0 °F46.0 °F86 %29.65 in5.0 miWest (260°)13.8 mphOvercast
1:53 PM48.9 °F46.9 °F93 %29.67 in3.0 miWest (280°)13.8 mph19.6 mph0.00 inRainLight Rain
2:42 PM48.2 °F46.4 °F93 %29.68 in2.5 miWest (280°)13.8 mph0.00 inOvercast
2:53 PM48.9 °F45.0 °F86 %29.68 in2.5 miWest (280°)13.8 mph0.00 inOvercast
3:53 PM48.0 °F45.0 °F89 %29.71 in2.0 miWNW (290°)10.4 mph0.01 inRainLight Rain
4:00 PM48.2 °F44.6 °F87 %29.71 in5.0 miWNW (290°)11.5 mph0.00 inRainLight Rain
4:03 PM48.2 °F44.6 °F87 %29.71 in3.0 miWNW (300°)11.5 mph17.3 mph0.00 inRainLight Rain
4:16 PM46.4 °F44.6 °F93 %29.72 in2.5 miWest (280°)15.0 mph24.2 mph0.01 inRainLight Rain
4:38 PM46.4 °F44.6 °F93 %29.74 in2.5 miWNW (300°)16.1 mph21.9 mph0.01 inOvercast
4:53 PM46.9 °F44.1 °F90 %29.75 in2.5 miWNW (300°)10.4 mph0.01 inOvercast
5:00 PM46.4 °F44.6 °F93 %29.75 in3.0 miWNW (290°)9.2 mphOvercast
5:53 PM48.0 °F42.1 °F80 %29.78 in10.0 miWNW (300°)8.1 mphOvercast
6:53 PM48.0 °F43.0 °F83 %29.80 in10.0 miWest (270°)5.8 mphOvercast
7:05 PM48.2 °F44.6 °F87 %29.81 in10.0 miWSW (250°)4.6 mphOvercast
7:48 PM48.2 °F44.6 °F87 %29.83 in10.0 miWest (270°)4.6 mphOvercast
7:53 PM48.0 °F43.0 °F83 %29.83 in10.0 miWest (270°)4.6 mphOvercast
8:46 PM48.2 °F44.6 °F87 %29.86 in10.0 miCalmOvercast
8:53 PM46.9 °F44.1 °F90 %29.86 in10.0 miSW (230°)3.5 mphOvercast
9:53 PM44.1 °F42.1 °F93 %29.87 in5.0 miSSW (210°)3.5 mphClear
10:06 PM42.8 °F41.0 °F93 %29.87 in1.8 miSouth (190°)3.5 mphClear
10:23 PM42.8 °F39.2 °F87 %29.87 in3.0 miSSW (200°)3.5 mphClear
10:53 PM42.1 °F41.0 °F96 %29.88 in1.8 miSSW (200°)3.5 mphClear
11:01 PM42.8 °F39.2 °F87 %29.87 in3.0 miSSW (200°)3.5 mphClear
11:13 PM41.0 °F39.2 °F93 %29.87 in1.8 miSSW (200°)3.5 mphClear
11:42 PM41.0 °F39.2 °F93 %29.87 in2.5 miSSW (200°)4.6 mphClear
11:53 PM39.0 °F37.0 °F93 %29.88 in1.5 miSSW (200°)4.6 mphPartly Cloudy
11:59 PM41.0 °F39.2 °F93 %29.88 in3.0 miSSW (210°)5.8 mphClear
Hourly data recorded from KMKL, located miles away from Jackson, Tennessee







STORIES FROM OUR PARTNERS